Wind_Speed
7 6 5 4 4 6 8 10 11 12 14 16 17 18 20 22 23 23 24 24 22 20 18 16 15 16 17 18 20 21 23 24 25 27 28 29 30 31 31 32 32 32 33 33
6 5 5 4 3 4 5 6 7 7 9 11 12 14 16 17 18 19 18 16 16 15 14 13 14 16 17 19 20 22 23 25 26 28 29 30 31 32 33 33 33 33 32 32
5 5 4 3 2 3 3 2 3 3 4 5 6 8 10 11 12 12 11 10 10 9 9 11 13 15 17 19 20 22 23 25 27 29 30 31 32 33 33 34 34 33 32 32
5 4 4 3 2 3 2 2 1 1 2 3 4 4 4 4 3 4 4 4 5 6 8 11 13 15 17 18 20 22 24 26 27 29 30 31 31 32 33 33 33 33 32 31
5 4 4 3 2 3 3 3 2 2 2 2 3 4 4 2 0 1 2 3 4 6 8 10 13 15 17 19 21 22 24 25 27 28 28 29 30 30 31 31 31 31 31 31
5 4 4 4 5 5 4 3 3 2 2 1 3 4 5 4 2 1 2 3 5 7 9 11 14 16 17 19 20 21 23 24 25 26 27 28 28 28 29 29 30 30 31 31
6 5 4 5 6 5 4 4 3 3 1 1 1 3 4 4 3 3 4 5 7 9 10 12 14 15 16 18 19 21 22 24 25 26 27 27 27 28 29 29 30 30 31 32
7 6 5 5 6 5 5 5 5 4 3 2 1 2 3 4 5 6 6 7 8 9 11 12 13 15 16 18 20 21 23 25 26 27 27 27 28 29 29 30 30 31 32 33
6 6 5 4 5 5 5 5 5 5 4 2 1 2 4 6 7 7 8 8 9 10 11 12 14 15 17 19 21 23 24 26 27 28 28 28 29 29 30 31 31 32 34 35
7 6 5 5 5 5 5 6 6 5 5 4 2 3 5 7 8 8 9 10 11 11 12 13 14 16 19 21 23 25 26 27 29 29 30 30 30 31 32 33 34 35 37 38
8 7 7 7 6 6 7 8 8 7 6 6 4 5 6 7 8 10 11 11 12 12 13 14 16 19 21 24 26 27 28 29 30 31 31 32 33 34 35 36 37 38 39 40
9 8 8 8 8 8 8 9 9 8 8 7 7 7 7 8 10 11 12 13 13 14 15 17 19 22 24 26 27 29 30 31 32 33 33 34 35 36 37 38 39 41 41 41
10 9 8 9 10 10 11 11 11 11 9 8 8 8 9 10 11 13 14 15 16 17 18 20 22 24 26 27 29 30 32 33 34 35 35 37 38 39 40 40 42 43 43 43
11 11 10 11 13 13 13 13 13 11 9 8 9 11 12 13 14 15 17 18 19 19 20 22 23 25 27 29 30 32 34 35 36 37 37 38 40 41 41 42 44 44 45 44
12 12 12 13 14 15 14 14 13 12 10 11 11 13 15 16 18 19 20 20 21 21 21 23 25 27 29 31 32 34 35 37 38 38 39 40 41 42 43 44 45 46 46 45
12 12 12 13 15 14 13 13 13 12 12 12 13 15 17 19 20 21 21 21 22 22 23 24 26 28 31 32 34 36 37 38 39 40 40 41 42 43 44 45 46 47 47 46
11 11 12 12 13 13 13 13 13 13 13 13 15 17 20 21 22 22 22 22 22 23 24 26 28 30 32 34 36 38 39 40 40 41 41 42 43 44 46 46 47 47 47 46
11 11 12 11 11 12 11 12 12 13 13 14 16 19 21 23 23 23 23 23 24 25 26 28 30 32 34 36 38 40 40 41 41 42 42 43 44 45 47 47 48 48 47 46
12 13 13 13 13 11 10 12 12 12 13 16 18 21 23 23 23 23 23 24 25 26 28 30 32 33 35 37 39 41 41 41 42 42 43 44 45 46 48 48 49 48 47 46
15 15 15 15 14 10 10 12 13 13 14 17 19 21 23 24 24 24 25 26 27 28 29 31 33 35 37 39 40 41 41 42 42 43 44 45 46 47 48 49 49 49 47 45
18 18 18 18 16 13 13 14 14 17 18 18 20 21 23 25 26 26 27 28 29 30 31 33 35 37 39 40 41 41 42 43 43 44 46 47 48 49 49 49 50 49 47 45
20 20 20 20 18 19 18 18 19 20 20 21 22 24 25 26 27 29 30 31 31 32 33 35 37 39 41 41 42 42 43 44 45 46 47 48 49 50 50 50 49 48 46 44
22 23 24 23 21 21 22 22 23 23 24 24 25 26 27 28 29 30 32 33 34 35 36 37 39 41 42 42 42 43 44 45 47 48 49 50 50 50 50 50 49 47 45 43
23 25 27 27 24 25 25 26 26 27 28 28 29 30 30 31 31 32 33 34 36 37 39 40 41 42 43 43 43 44 46 48 49 50 51 51 51 51 51 50 48 46 44 42
23 27 29 29 28 29 28 29 29 29 30 31 32 33 33 33 33 34 34 36 37 39 41 42 42 43 44 45 45 47 48 50 51 53 53 53 52 51 49 48 47 45 43 41
26 30 32 32 31 32 31 31 31 31 32 33 35 35 35 36 35 35 36 37 38 40 41 42 43 44 46 47 49 50 51 52 53 55 55 54 52 50 48 46 45 44 42 40
Wind_Direction
360 353 338 306 275 261 252 252 256 262 263 263 268 272 272 272 273 274 275 275 274 278 283 288 293 298 301 304 307 309 310 310 310 311 311 310 310 309 308 306 304 302 300 298
4 6 359 332 307 284 274 273 268 264 262 264 268 274 277 274 270 271 274 269 271 277 283 291 299 304 308 310 312 312 313 314 314 314 313 313 311 310 308 307 305 303 301 300
358 355 347 344 325 303 285 283 260 256 259 272 276 286 285 277 268 269 266 260 267 275 286 298 305 309 312 314 315 315 315 315 315 314 312 311 309 308 307 306 304 303 301 300
349 352 352 0 348 341 343 351 325 303 284 303 313 318 313 283 262 263 256 253 272 282 296 305 309 311 313 315 315 316 316 315 313 311 309 308 307 306 305 305 304 303 302 301
343 352 355 352 354 350 354 346 343 342 346 6 26 19 18 25 144 264 279 287 295 299 307 311 312 313 315 315 315 314 313 312 311 310 309 308 307 307 306 306 306 305 304 303
336 329 342 335 326 329 332 330 317 330 344 56 37 29 43 55 58 13 318 311 308 311 314 314 314 314 313 313 313 313 313 313 314 315 315 315 314 313 313 313 311 310 309 307
324 324 332 331 332 335 339 333 330 322 304 339 12 20 28 20 9 343 325 313 308 311 312 312 310 311 313 315 316 318 320 322 323 323 323 322 322 322 321 320 318 316 314 311
303 302 311 322 334 346 351 354 350 339 329 310 325 355 337 325 320 312 310 308 307 308 309 309 311 315 320 324 327 328 329 330 331 330 329 328 328 327 326 325 323 321 318 315
292 288 296 307 320 328 347 354 351 343 341 334 325 314 298 291 293 300 305 307 308 309 311 314 320 325 329 333 335 335 335 335 336 335 333 332 331 330 329 328 326 324 322 318
285 276 281 293 298 310 325 333 338 339 337 332 303 280 279 278 289 301 306 307 308 312 319 325 330 333 337 340 341 340 339 338 337 337 336 334 333 332 331 330 329 327 324 321
284 276 275 278 288 298 308 317 322 324 318 314 304 289 285 290 299 305 309 309 310 318 326 332 336 339 341 343 343 342 340 338 337 336 335 335 334 334 332 331 329 328 325 322
286 278 275 274 276 283 290 300 306 309 310 306 309 310 301 303 306 309 312 315 319 326 332 337 339 341 342 342 341 340 339 337 336 335 335 334 334 333 332 331 329 328 326 323
283 279 270 265 267 276 284 293 298 302 300 302 309 314 310 309 311 316 319 324 329 332 335 337 339 339 340 340 339 338 337 336 335 334 333 333 333 332 331 331 330 328 327 324
280 278 271 266 268 275 282 287 290 294 294 300 309 312 310 312 316 321 326 329 332 332 332 334 335 336 336 336 336 335 334 334 333 333 333 332 332 331 331 331 330 329 327 325
278 277 273 271 274 279 283 283 282 287 292 299 307 308 310 314 319 324 327 327 328 328 327 329 330 332 333 333 333 333 332 332 332 332 332 331 331 330 330 330 329 328 327 325
275 276 276 276 279 285 286 284 284 289 296 301 303 305 308 313 318 321 322 322 322 323 324 325 327 329 330 331 331 331 331 331 331 330 330 330 329 329 329 328 328 327 326 325
271 275 277 279 284 290 292 289 290 294 299 300 301 303 307 311 316 318 319 319 319 320 322 324 325 327 328 329 330 330 329 329 329 329 329 329 329 328 327 327 327 327 326 324
272 274 276 281 290 299 297 293 293 295 298 298 299 303 306 310 314 315 316 316 318 319 321 323 324 326 327 327 328 328 328 328 328 329 328 328 328 327 327 327 327 327 326 324
278 277 278 284 292 295 293 293 295 297 300 299 301 302 305 308 311 313 314 315 316 318 320 322 323 324 325 326 326 327 327 327 328 328 328 328 328 327 327 327 327 326 326 324
271 273 276 280 285 284 291 290 294 295 300 298 299 299 303 306 310 313 314 314 315 317 318 320 321 322 323 324 325 326 327 327 327 328 328 327 327 327 326 326 326 326 325 324
266 269 274 279 283 291 297 297 296 301 301 300 300 301 304 307 309 311 312 313 314 315 316 318 319 320 322 323 324 325 326 327 327 326 327 326 326 326 325 325 326 326 326 325
266 271 276 280 285 293 295 297 298 299 300 301 301 302 304 306 307 308 309 310 312 313 315 316 317 319 321 322 324 325 326 327 326 326 326 325 325 325 325 325 325 326 326 326
269 273 277 280 284 290 292 294 296 297 298 299 300 301 303 304 305 305 306 308 310 311 313 315 316 318 320 321 323 324 325 326 327 326 326 325 324 324 324 325 325 325 326 326
270 274 277 280 284 285 287 291 293 295 297 299 299 300 301 302 302 302 303 305 307 310 312 314 316 318 320 321 322 323 324 325 326 326 326 325 324 324 324 325 326 326 326 326
270 271 272 275 279 280 283 286 289 292 294 296 296 296 297 298 299 299 301 303 306 308 311 313 316 318 319 320 321 322 323 323 324 325 325 325 324 324 324 325 326 326 326 327
265 268 271 275 278 280 283 285 288 290 291 291 292 293 294 295 297 298 300 302 304 307 310 312 315 316 318 319 320 321 321 322 323 324 325 325 324 325 325 325 325 325 326 327
Height
5865 5865 5863 5863 5862 5862 5862 5862 5862 5863 5863 5864 5863 5863 5862 5861 5859 5858 5857 5856 5856 5857 5857 5857 5856 5855 5854 5853 5851 5850 5848 5846 5843 5841 5839 5836 5834 5831 5829 5826 5823 5821 5818 5816
5868 5866 5865 5864 5863 5862 5862 5861 5861 5862 5861 5861 5860 5859 5857 5856 5854 5853 5852 5852 5852 5853 5853 5854 5853 5852 5851 5849 5848 5846 5843 5841 5839 5836 5833 5830 5828 5825 5822 5819 5816 5814 5811 5809
5868 5868 5866 5865 5864 5863 5862 5861 5861 5860 5860 5859 5858 5856 5853 5851 5850 5849 5849 5849 5850 5851 5851 5851 5851 5849 5848 5846 5845 5842 5840 5837 5834 5831 5828 5825 5822 5818 5815 5812 5809 5806 5804 5801
5868 5867 5866 5865 5864 5863 5862 5861 5860 5860 5859 5857 5856 5854 5851 5849 5849 5848 5848 5849 5849 5850 5850 5850 5848 5847 5846 5844 5842 5839 5836 5833 5830 5826 5823 5820 5816 5813 5809 5805 5802 5799 5796 5793
5867 5867 5866 5865 5864 5863 5863 5861 5860 5860 5858 5857 5856 5854 5853 5850 5849 5849 5849 5849 5849 5849 5849 5848 5847 5845 5843 5841 5838 5836 5832 5829 5826 5822 5818 5814 5810 5806 5802 5799 5795 5791 5788 5785
5867 5866 5865 5864 5863 5863 5862 5861 5860 5859 5859 5858 5856 5855 5853 5851 5851 5850 5850 5850 5849 5849 5848 5846 5845 5843 5841 5838 5835 5832 5828 5825 5820 5816 5812 5808 5804 5800 5796 5792 5788 5784 5780 5777
5868 5866 5865 5864 5863 5862 5861 5861 5860 5859 5858 5858 5857 5856 5855 5853 5852 5851 5850 5849 5849 5848 5846 5845 5843 5841 5838 5835 5832 5828 5824 5819 5815 5810 5806 5802 5797 5793 5789 5785 5781 5777 5773 5769
5867 5866 5865 5864 5863 5861 5861 5860 5860 5859 5858 5857 5856 5855 5855 5853 5852 5851 5850 5849 5848 5846 5845 5843 5841 5838 5835 5831 5827 5823 5818 5814 5809 5805 5800 5796 5791 5787 5783 5778 5774 5770 5766 5761
5866 5865 5864 5863 5862 5861 5860 5859 5859 5858 5857 5856 5856 5855 5854 5852 5851 5850 5849 5848 5846 5845 5843 5840 5837 5834 5831 5827 5822 5818 5813 5809 5804 5800 5795 5790 5786 5781 5776 5772 5767 5763 5758 5753
5864 5864 5863 5862 5862 5861 5860 5859 5858 5857 5856 5855 5855 5854 5853 5851 5850 5849 5847 5846 5844 5842 5840 5837 5833 5830 5826 5822 5817 5813 5808 5804 5799 5794 5790 5785 5780 5775 5770 5765 5760 5755 5750 5745
5863 5863 5862 5861 5861 5860 5860 5859 5857 5856 5855 5854 5853 5854 5851 5849 5848 5847 5845 5844 5841 5839 5836 5832 5829 5825 5820 5816 5812 5807 5803 5799 5794 5789 5784 5779 5774 5769 5764 5758 5753 5747 5742 5736
5861 5861 5859 5859 5859 5858 5858 5857 5856 5855 5853 5852 5851 5853 5848 5847 5845 5844 5842 5840 5837 5834 5831 5827 5823 5819 5815 5811 5807 5803 5798 5794 5789 5784 5779 5773 5768 5762 5757 5751 5745 5739 5733 5726
5859 5858 5857 5857 5858 5857 5856 5855 5854 5853 5851 5849 5848 5850 5846 5844 5842 5840 5838 5835 5832 5829 5825 5822 5818 5814 5810 5806 5802 5798 5794 5789 5784 5778 5773 5767 5761 5755 5749 5743 5736 5730 5723 5717
5856 5855 5855 5855 5854 5853 5852 5852 5851 5850 5848 5847 5846 5844 5842 5840 5838 5836 5833 5830 5827 5823 5820 5817 5813 5810 5806 5802 5798 5793 5788 5783 5778 5772 5766 5760 5754 5747 5741 5735 5728 5721 5714 5707
5853 5852 5851 5851 5850 5849 5849 5848 5847 5846 5845 5844 5843 5841 5839 5836 5834 5831 5828 5825 5822 5819 5816 5813 5809 5805 5801 5797 5792 5788 5782 5777 5771 5765 5759 5753 5746 5740 5733 5726 5719 5712 5705 5697
5850 5849 5849 5848 5847 5846 5845 5844 5843 5842 5841 5840 5839 5837 5834 5832 5829 5826 5823 5820 5818 5815 5812 5808 5804 5800 5796 5791 5787 5782 5776 5770 5764 5758 5752 5746 5739 5732 5725 5718 5711 5703 5695 5688
5847 5846 5846 5845 5844 5843 5842 5841 5839 5838 5837 5836 5834 5833 5829 5827 5824 5821 5819 5816 5813 5810 5807 5803 5799 5795 5791 5786 5781 5775 5770 5764 5758 5751 5745 5738 5731 5724 5717 5709 5702 5694 5686 5678
5844 5843 5842 5842 5842 5840 5841 5837 5836 5835 5833 5832 5830 5827 5825 5822 5819 5817 5814 5811 5808 5805 5801 5797 5793 5789 5785 5780 5774 5769 5763 5757 5751 5744 5738 5731 5724 5716 5708 5700 5692 5684 5676 5668
5840 5840 5839 5839 5838 5837 5836 5834 5832 5831 5830 5828 5825 5823 5820 5817 5814 5812 5809 5806 5802 5799 5796 5792 5787 5783 5778 5773 5768 5762 5756 5750 5743 5737 5730 5723 5715 5708 5700 5691 5683 5675 5666 5658
5837 5836 5836 5835 5834 5833 5834 5831 5828 5828 5826 5824 5821 5818 5815 5812 5809 5807 5803 5800 5797 5793 5790 5786 5781 5777 5772 5767 5761 5755 5749 5743 5736 5729 5722 5715 5707 5699 5691 5683 5674 5665 5656 5648
5832 5832 5831 5830 5828 5828 5828 5825 5824 5824 5821 5818 5815 5812 5809 5806 5804 5801 5797 5794 5791 5787 5783 5779 5775 5770 5765 5760 5754 5747 5741 5735 5728 5721 5714 5706 5698 5690 5682 5673 5665 5656 5647 5639
5827 5826 5825 5824 5823 5824 5822 5820 5819 5817 5814 5812 5809 5806 5804 5801 5797 5794 5790 5787 5784 5780 5777 5772 5768 5763 5757 5752 5746 5740 5733 5727 5720 5712 5705 5697 5689 5681 5673 5664 5655 5647 5638 5630
5821 5821 5819 5819 5819 5818 5815 5813 5812 5810 5808 5806 5803 5800 5798 5794 5791 5787 5784 5780 5776 5773 5769 5765 5760 5755 5749 5743 5737 5731 5725 5718 5711 5704 5696 5688 5680 5671 5663 5654 5646 5637 5629 5621
5816 5814 5812 5811 5811 5810 5808 5807 5805 5803 5800 5798 5796 5793 5791 5787 5784 5781 5777 5773 5769 5765 5761 5756 5752 5746 5741 5735 5729 5723 5716 5710 5702 5695 5687 5679 5670 5662 5653 5645 5637 5629 5621 5613
5809 5806 5804 5803 5804 5802 5801 5799 5797 5795 5793 5791 5789 5786 5783 5780 5777 5773 5769 5765 5761 5757 5752 5748 5743 5737 5732 5726 5720 5714 5707 5701 5693 5686 5678 5669 5661 5652 5644 5635 5627 5620 5613 5605
5801 5798 5796 5796 5796 5794 5793 5792 5790 5788 5786 5783 5781 5778 5775 5772 5769 5765 5761 5757 5753 5748 5743 5738 5733 5728 5723 5717 5711 5705 5698 5691 5684 5676 5668 5660 5651 5643 5635 5627 5619 5611 5604 5597